K4FB Weather Reports


time (UTC)temp
C
wind
direction
speed
KPH
gust
KPH
rain 1hr
cm
rain 24hr
cm
rain mn
cm
humidity
%
barometer
mb
20260503010031 21 203 4.8 12.9 0.00 0.23 0.23 93 1013.0
20260503005012 21 205 4.8 12.9 0.00 0.23 0.23 93 1012.8
20260503003503 21 315 0.0 4.8 0.00 0.23 0.23 93 1011.6
20260503003022 21 315 0.0 8.0 0.00 0.23 0.23 93 1011.6
20260503002516 21 314 1.6 8.0 0.00 0.23 0.23 93 1011.8
20260503001518 21 254 0.0 8.0 0.03 0.23 0.23 93 1011.5
20260503001008 21 240 3.2 11.3 0.03 0.23 0.23 93 1012.0
20260503000024 21 213 4.8 14.5 0.05 0.23 0.23 93 1012.2
20260502234008 21 223 3.2 8.0 0.08 0.23 0.23 93 1011.8
20260502233509 21 201 3.2 8.0 0.10 0.23 0.23 93 1011.7
20260502233009 21 171 3.2 6.4 0.10 0.23 0.23 93 1011.3
20260502232007 21 217 0.0 12.9 0.08 0.20 0.20 92 1011.8
20260502231519 21 194 1.6 12.9 0.08 0.20 0.20 93 1011.6
20260502230022 21 200 3.2 6.4 0.05 0.18 0.18 93 1011.5
20260502225007 21 214 1.6 11.3 0.05 0.18 0.18 93 1011.9
20260502224522 21 213 1.6 9.7 0.03 0.15 0.15 92 1012.1
20260502224008 21 228 3.2 12.9 0.03 0.15 0.15 92 1012.2
20260502223505 21 198 8.0 12.9 0.00 0.13 0.13 92 1012.5
20260502223018 21 207 4.8 14.5 0.00 0.13 0.13 92 1012.4
20260502222510 21 205 6.4 17.7 0.00 0.13 0.13 92 1012.1
20260502222005 21 190 11.3 17.7 0.00 0.13 0.13 92 1012.0
20260502220013 21 180 1.6 14.5 0.00 0.13 0.13 92 1011.6
20260502214521 21 200 9.7 17.7 0.03 0.13 0.13 91 1012.4
20260502214004 21 205 4.8 9.7 0.05 0.13 0.13 92 1012.2
20260502213507 21 208 3.2 8.0 0.13 0.13 0.13 92 1011.8
20260502213029 21 217 1.6 11.3 0.13 0.13 0.13 91 1011.7
20260502212506 21 284 3.2 12.9 0.13 0.13 0.13 91 1011.8
20260502212005 21 263 4.8 14.5 0.13 0.13 0.13 91 1012.1
20260502211522 21 240 4.8 14.5 0.13 0.13 0.13 91 1012.1
20260502211009 21 225 6.4 17.7 0.13 0.13 0.13 91 1012.1
20260502205006 21 240 8.0 16.1 0.10 0.10 0.10 87 1012.1
20260502204524 21 261 4.8 16.1 0.10 0.10 0.10 86 1011.9
20260502204006 21 332 3.2 19.3 0.08 0.08 0.08 84 1011.7
20260502203018 22 275 11.3 27.4 0.00 0.00 0.00 81 1012.3
20260502202509 22 234 9.7 29.0 0.00 0.00 0.00 79 1012.3
20260502201525 23 279 8.0 29.0 0.00 0.00 0.00 76 1012.4
20260502201006 24 271 11.3 38.6 0.00 0.00 0.00 72 1012.6
20260502200510 25 331 16.1 38.6 0.00 0.00 0.00 65 1012.7
20260502200036 27 330 20.9 33.8 0.00 0.00 0.00 63 1012.7
20260502194518 27 182 9.7 20.9 0.00 0.00 0.00 71 1011.9
20260502192008 28 248 12.9 19.3 0.00 0.00 0.00 69 1011.8
20260502191524 28 255 11.3 19.3 0.00 0.00 0.00 70 1011.7
20260502190509 28 252 9.7 19.3 0.00 0.00 0.00 72 1012.0
20260502190018 28 246 6.4 19.3 0.00 0.00 0.00 72 1012.0
20260502185508 28 257 8.0 24.1 0.00 0.00 0.00 71 1012.1
20260502185011 28 228 12.9 24.1 0.00 0.00 0.00 70 1012.0
20260502184526 28 228 12.9 29.0 0.00 0.00 0.00 69 1011.9
20260502183020 29 253 9.7 25.7 0.00 0.00 0.00 68 1012.0
20260502180509 30 209 17.7 30.6 0.00 0.00 0.00 66 1012.1
20260502170509 30 241 22.5 40.2 0.00 0.00 0.00 63 1012.1
20260502163020 31 202 16.1 37.0 0.00 0.00 0.00 61 1012.0
20260502162509 30 190 19.3 37.0 0.00 0.00 0.00 64 1012.0
20260502161006 29 189 12.9 24.1 0.00 0.00 0.00 67 1012.4
20260502160507 29 226 11.3 22.5 0.00 0.00 0.00 68 1012.3
20260502130503 23 213 9.7 20.9 0.00 0.00 0.00 87 1011.7
20260502123004 21 207 3.2 14.5 0.00 0.00 0.00 96 1011.6
20260502122003 21 160 8.0 16.1 0.00 0.00 0.00 96 1011.5
20260502121503 21 161 6.4 12.9 0.00 0.00 0.00 96 1011.3
20260502121005 21 206 6.4 14.5 0.00 0.00 0.00 96 1011.3
20260502120504 21 197 9.7 14.5 0.00 0.00 0.00 96 1011.4
20260502115504 20 181 9.7 16.1 0.00 0.00 0.00 96 1011.6
20260502115003 20 189 8.0 14.5 0.00 0.00 0.00 96 1011.5
20260502114508 20 184 4.8 14.5 0.00 0.00 0.00 96 1011.5
20260502114003 20 180 4.8 11.3 0.00 0.00 0.00 96 1011.6
20260502113503 20 180 3.2 8.0 0.00 0.00 0.00 96 1011.6
20260502113006 20 192 1.6 6.4 0.00 0.00 0.00 96 1011.6
20260502111508 20 188 1.6 4.8 0.00 0.00 0.00 96 1011.4
20260502111003 20 189 1.6 4.8 0.00 0.00 0.00 96 1011.5
20260502110503 20 187 0.0 4.8 0.00 0.00 0.00 96 1011.4
20260502105504 20 183 1.6 4.8 0.00 0.00 0.00 96 1011.3
20260502105003 20 182 0.0 3.2 0.00 0.00 0.00 96 1011.3
20260502104513 20 182 0.0 3.2 0.00 0.00 0.00 96 1011.2
20260502104003 20 182 0.0 3.2 0.00 0.00 0.00 96 1011.2
20260502103503 20 182 0.0 4.8 0.00 0.00 0.00 96 1011.0
20260502103011 19 182 0.0 4.8 0.00 0.00 0.00 96 1010.8
20260502102503 19 182 1.6 4.8 0.00 0.00 0.00 96 1010.7
20260502102003 19 181 0.0 4.8 0.00 0.00 0.00 96 1010.7
20260502101508 19 190 0.0 4.8 0.00 0.00 0.00 96 1010.9
20260502101002 18 181 1.6 4.8 0.00 0.00 0.00 95 1010.9
20260502100502 18 176 0.0 4.8 0.00 0.00 0.00 95 1011.0
20260502091508 18 231 0.0 0.0 0.00 0.00 0.00 95 1011.7
20260502091003 18 231 0.0 0.0 0.00 0.00 0.00 94 1011.7
20260502090502 18 231 0.0 0.0 0.00 0.00 0.00 94 1011.6
20260502071517 19 231 0.0 0.0 0.00 0.00 0.00 93 1012.0
20260502071004 20 231 0.0 0.0 0.00 0.00 0.00 93 1012.0
20260502070017 20 231 0.0 0.0 0.00 0.00 0.00 93 1012.1
20260502065507 20 231 0.0 0.0 0.00 0.00 0.00 93 1012.1
20260502065011 20 231 0.0 0.0 0.00 0.00 0.00 94 1012.2
20260502064517 20 231 0.0 0.0 0.00 0.00 0.00 93 1012.2
20260502064007 20 231 0.0 0.0 0.00 0.00 0.00 93 1012.2
20260502063504 20 231 0.0 0.0 0.00 0.00 0.00 93 1012.3
20260502063018 20 231 0.0 0.0 0.00 0.00 0.00 93 1012.3
20260502062509 20 231 0.0 0.0 0.00 0.00 0.00 93 1012.3
20260502062006 20 231 0.0 0.0 0.00 0.00 0.00 93 1012.3
20260502061515 20 231 0.0 0.0 0.00 0.00 0.00 93 1012.5
20260502061004 20 231 0.0 0.0 0.00 0.00 0.00 93 1012.6
20260502060507 20 231 0.0 0.0 0.00 0.00 0.00 92 1012.5
20260502060012 20 231 0.0 0.0 0.00 0.00 0.00 92 1012.6
20260502055505 20 231 0.0 0.0 0.00 0.00 0.00 93 1012.5
20260502055006 20 231 0.0 0.0 0.00 0.00 0.00 92 1012.4
20260502054516 20 231 0.0 0.0 0.00 0.00 0.00 92 1012.4
20260502053504 20 231 0.0 0.0 0.00 0.00 0.00 92 1012.4
20260502053016 20 231 0.0 1.6 0.00 0.00 0.00 92 1012.6
20260502052504 20 231 0.0 1.6 0.00 0.00 0.00 92 1012.7
20260502052008 20 231 0.0 1.6 0.00 0.00 0.00 92 1012.8
20260502051518 20 231 0.0 3.2 0.00 0.00 0.00 92 1012.8
20260502051003 20 231 0.0 3.2 0.00 0.00 0.00 92 1012.8
20260502050505 20 231 0.0 3.2 0.00 0.00 0.00 91 1012.7
20260502050005 20 231 0.0 1.6 0.00 0.00 0.00 90 1012.6
20260502045503 20 231 0.0 1.6 0.00 0.00 0.00 91 1012.6
20260502045009 20 231 0.0 1.6 0.00 0.00 0.00 91 1012.7
20260502044505 20 231 0.0 0.0 0.00 0.00 0.00 90 1012.8
20260502044002 21 231 0.0 0.0 0.00 0.00 0.00 90 1012.8
20260502043505 21 231 0.0 0.0 0.00 0.00 0.00 89 1012.8
20260502043014 21 231 0.0 0.0 0.00 0.00 0.00 89 1012.7
20260502041517 21 231 0.0 0.0 0.00 0.00 0.00 88 1012.8
20260502041004 21 231 0.0 0.0 0.00 0.00 0.00 87 1012.7
20260502040500 21 231 0.0 0.0 0.00 0.00 0.00 87 1012.8
20260502035503 21 231 0.0 3.2 0.00 0.00 0.00 87 1012.7
20260502035003 21 231 0.0 3.2 0.00 0.00 0.00 87 1012.7
20260502034507 22 231 0.0 3.2 0.00 0.00 0.00 86 1012.9
20260502034006 22 231 0.0 4.8 0.00 0.00 0.00 86 1012.9
20260502033504 22 231 0.0 4.8 0.00 0.00 0.00 86 1012.9
20260502033011 22 231 1.6 4.8 0.00 0.00 0.00 85 1012.8
20260502032506 22 230 1.6 3.2 0.00 0.00 0.00 85 1012.7
20260502032003 22 230 0.0 4.8 0.00 0.00 0.00 85 1012.6
20260502031503 22 229 1.6 4.8 0.00 0.00 0.00 84 1012.8
20260502030501 22 229 1.6 4.8 0.00 0.00 0.00 83 1012.7
20260502030022 22 225 1.6 6.4 0.00 0.00 0.00 83 1012.7
20260502025503 22 236 1.6 6.4 0.00 0.00 0.00 83 1012.7
20260502025003 23 236 3.2 6.4 0.00 0.00 0.00 83 1012.7
20260502024506 23 229 1.6 6.4 0.00 0.00 0.00 82 1012.8
20260502024003 23 237 1.6 6.4 0.00 0.00 0.00 82 1012.8
20260502023503 23 257 1.6 6.4 0.00 0.00 0.00 81 1012.8
20260502023008 23 236 3.2 8.0 0.00 0.00 0.00 81 1012.8
20260502022504 23 235 3.2 8.0 0.00 0.00 0.00 81 1012.7
20260502022006 23 235 3.2 9.7 0.00 0.00 0.00 80 1012.6
20260502021507 23 238 4.8 9.7 0.00 0.00 0.00 79 1012.7
20260502021004 23 244 3.2 9.7 0.00 0.00 0.00 78 1012.7
20260502020504 23 229 3.2 9.7 0.00 0.00 0.00 78 1012.7
20260502020008 23 262 1.6 9.7 0.00 0.00 0.00 77 1012.6
20260502015505 23 248 1.6 8.0 0.00 0.00 0.00 1012.6
20260502015006 23 240 3.2 9.7 0.00 0.00 0.00 75 1012.5
20260502014505 24 232 3.2 12.9 0.00 0.00 0.00 75 1012.4
20260502014002 24 234 4.8 12.9 0.00 0.00 0.00 75 1012.3
20260502013503 24 241 3.2 9.7 0.00 0.00 0.00 73 1012.2
20260502013021 24 236 1.6 9.7 0.00 0.00 0.00 71 1012.2
20260502012503 25 231 4.8 8.0 0.00 0.00 0.00 69 1012.1
20260502012004 25 238 4.8 8.0 0.00 0.00 0.00 68 1012.0
20260502011508 25 234 3.2 6.4 0.00 0.00 0.00 67 1012.0
20260502011004 25 236 3.2 9.7 0.00 0.00 0.00 66 1012.0
20260502010507 25 253 3.2 12.9 0.00 0.00 0.00 66 1012.0